Weather History for Spirit of St Louis, MO

Change the Weather History Date:

Wednesday, January 9, 2013

  Actual Average Record
Temperature  
Mean Temperature 46 °F -  
Max Temperature 57 °F 37 °F - (-1)
Min Temperature 34 °F 19 °F - (-1)
Degree Days  
Heating Degree Days 20    
Moisture  
Dew Point 34 °F    
Average Humidity 66    
Maximum Humidity 96    
Minimum Humidity 37    
Precipitation  
Precipitation 0.00 in - - ()
Sea Level Pressure  
Sea Level Pressure 30.38 in    
Wind  
Wind Speed 4 mph (NW)    
Max Wind Speed 8 mph    
Max Gust Speed -    
Visibility 10 miles    
Events      
Averages and records for this station are not official NWS values.
T = Trace of Precipitation, MM = Missing Value Source: NWS Daily Summary

Daily Weather History Graph

Daily Weather History Graph

Search for Another Location

Airport:

Trip Planner

Search our weather history database for the weather conditions in past years. The results will help you decide how hot, cold, wet, or windy it might be!

Date:

Astronomy

Jan. 09, 2013 Rise Set
Actual Time 7:20 AM CST 4:59 PM CST
Civil Twilight 6:51 AM CST 5:28 PM CST
Nautical Twilight 6:18 AM CST 6:01 PM CST
Astronomical Twilight 5:46 AM CST 6:33 PM CST
Moon 4:59 AM CST (1/9) 3:01 PM CST (1/9)
Length of Visible Light 10h 37m
Length of Day
9h 39m
Waning Crescent, 6% of the Moon is Illuminated
Jan 9
Waning Crescent
Jan 11
New
Jan 18
First Quarter
Jan 26
Full
Feb 3
Last Quarter

Hourly Weather History & Observations

Time (CST) Temp. Windchill Dew Point Humidity Pressure Visibility Wind Dir Wind Speed Gust Speed Precip Events Conditions
12:54 AM 48.9 °F - 37.0 °F 64% 30.20 in 10.0 mi WSW 4.6 mph - N/A   Overcast
1:54 AM 48.0 °F - 39.9 °F 74% 30.22 in 10.0 mi WSW 5.8 mph - 0.00 in   Overcast
2:54 AM 50.0 °F - 42.1 °F 74% 30.23 in 10.0 mi WSW 8.1 mph - 0.00 in   Overcast
3:54 AM 50.0 °F - 42.1 °F 74% 30.25 in 10.0 mi WSW 6.9 mph - N/A   Overcast
4:54 AM 45.0 °F 41.8 °F 39.9 °F 82% 30.27 in 10.0 mi West 5.8 mph - N/A   Partly Cloudy
5:54 AM 41.0 °F - 39.0 °F 93% 30.29 in 10.0 mi Calm Calm - N/A   Clear
6:54 AM 34.0 °F 28.8 °F 33.1 °F 96% 30.34 in 10.0 mi WSW 5.8 mph - N/A   Scattered Clouds
7:54 AM 37.0 °F - 35.1 °F 93% 30.37 in 10.0 mi Calm Calm - N/A   Scattered Clouds
8:54 AM 42.8 °F - 39.2 °F 87% 30.37 in 10.0 mi Calm Calm - N/A   Mostly Cloudy
9:54 AM 48.9 °F - 36.0 °F 61% 30.41 in 10.0 mi West 3.5 mph - N/A   Mostly Cloudy
10:54 AM 52.0 °F - 37.0 °F 57% 30.42 in 10.0 mi Calm Calm - N/A   Mostly Cloudy
11:54 AM 57.0 °F - 34.0 °F 42% 30.40 in 10.0 mi North 6.9 mph - N/A   Mostly Cloudy
12:54 PM 57.9 °F - 33.1 °F 39% 30.38 in 10.0 mi North 5.8 mph - N/A   Mostly Cloudy
1:54 PM 57.9 °F - 32.0 °F 37% 30.40 in 10.0 mi NNW 6.9 mph - N/A   Mostly Cloudy
2:54 PM 57.0 °F - 33.1 °F 40% 30.40 in 10.0 mi Calm Calm - N/A   Mostly Cloudy
3:54 PM 54.0 °F - 33.1 °F 45% 30.42 in 10.0 mi NE 5.8 mph - N/A   Mostly Cloudy
4:54 PM 51.1 °F - 28.0 °F 41% 30.42 in 10.0 mi NNE 4.6 mph - N/A   Mostly Cloudy
5:54 PM 42.1 °F - 28.0 °F 58% 30.45 in 10.0 mi Calm Calm - N/A   Clear
6:54 PM 39.9 °F - 28.0 °F 63% 30.48 in 10.0 mi Calm Calm - N/A   Clear
7:54 PM 39.9 °F 35.8 °F 28.9 °F 65% 30.47 in 10.0 mi East 5.8 mph - N/A   Clear
8:54 PM 41.0 °F 39.0 °F 30.0 °F 65% 30.48 in 10.0 mi ESE 3.5 mph - N/A   Clear
9:54 PM 37.9 °F - 30.0 °F 73% 30.48 in 10.0 mi Calm Calm - N/A   Clear
10:54 PM 37.0 °F 32.4 °F 28.9 °F 73% 30.46 in 10.0 mi East 5.8 mph - N/A   Clear
11:54 PM 37.0 °F 31.0 °F 30.0 °F 76% 30.46 in 10.0 mi ENE 8.1 mph - N/A   Clear